Regional Weather Roundup
Issued by NWS Jackson, KY

Home | Current Version | Previous Version | Graphics & Text | Print | Product List | Glossary On
Versions: 1 2 3 4 5 6 7 8 9 10 11 12 13 14 15 16 17 18 19 20 21 22 23 24 25 26 27 28 29 30 31 32 33 34 35 36 37 38 39 40 41 42 43 44 45 46 47 48 49 50
201
ASUS43 KJKL 241910
RWRJKL

EAST KENTUCKY HOURLY WEATHER ROUNDUP
NATIONAL WEATHER SERVICE JACKSON KY
300 PM EDT TUE APR 24 2018

NOTE: "FAIR" INDICATES FEW OR NO CLOUDS BELOW 12,000 FEET WITH
NO SIGNIFICANT WEATHER AND/OR OBSTRUCTIONS TO VISIBILITY.

* THESE REPORTS ARE NOT UNDER NWS QUALITY CONTROL AND MAY NOT
  REPORT WEATHER SUCH AS PRECIPITATION AND FOG.

KYZ079-080-083-085-087-088-110-112-115-119-120-242000
...EASTERN KENTUCKY...

CITY           SKY/WX    TMP DP  RH WIND       PRES   REMARKS
JACKSON        CLOUDY    62  52  69 CALM      29.87F
LONDON         CLOUDY    63  55  75 NW3       29.86F
SOMERSET*      CLOUDY    61  52  72 CALM      29.88F
MONTICELLO*    PTSUNNY   64  56  75 N15G21    29.88F
MIDDLESBORO*   CLOUDY    62  54  74 CALM      29.86F
HARLAN APT*    CLOUDY    59  54  83 W3        29.85F
PIKE CO APT*   LGT RAIN  56  56 100 E3        29.88S
BIG SANDY APT* CLOUDY    59  56  89 E5        29.89S
MOREHEAD APT*  CLOUDY    59  52  77 CALM      29.90S
ASHLAND*       LGT RAIN  55  53  93 VRB3      29.91F
$$

KYZ035-036-041-042-044-050-067-078-099-242000
...CENTRAL KENTUCKY...

CITY           SKY/WX    TMP DP  RH WIND       PRES   REMARKS
DANVILLE*      CLOUDY    59  55  88 NW5       29.89F
LEXINGTON      LGT RAIN  57  53  86 CALM      29.89F
FRANKFORT      CLOUDY    57  52  83 CALM      29.88S
LOUISVILLE     CLOUDY    58  54  86 N6        29.89F
GLASGOW*       RAIN      61  55  80 NW8       29.89S
BOWLING GREEN  CLOUDY    60  57  89 VRB7      29.90S
$$

KYZ091>093-OHZ055-061-077-WVZ005-015-034-035-042-242000
...SOUTHERN OHIO/WEST VIRGINIA...

CITY           SKY/WX    TMP DP  RH WIND       PRES   REMARKS
COVINGTON      DRIZZLE   55  54  96 NE9       29.90F FOG
COLUMBUS       LGT RAIN  54  51  90 E15       29.95F
DAYTON         LGT RAIN  53  52  96 E12       29.94F
WILMINGTON     CLOUDY    53  52  96 E10G20    29.91F
HUNTINGTON     CLOUDY    55  52  89 NE8       29.90F
CHARLESTON     LGT RAIN  57  56  96 N5        29.90F
PINEVILLE*     CLOUDY    61  49  64 MISG      29.93F
BECKLEY        LGT RAIN  52  50  93 E13       29.91F FOG
BLUEFIELD      CLOUDY    50  48  93 E9G17     29.91F
$$

VAZ002-007-008-TNZ017-027-036-066-071-242000
...SOUTHWEST VIRGINIA/EAST TENNESSEE...

CITY           SKY/WX    TMP DP  RH WIND       PRES   REMARKS
WISE*          CLOUDY    54  54 100 E3        29.90S
JONESVILLE*      N/A     64  54  68 CALM      29.86F
ABINGDON*      LGT RAIN  56  54  95 E6        29.88F
BRISTOL        CLOUDY    58  56  93 NE6       29.86F
MORRISTOWN*    CLOUDY    59  57  94 W8        29.84F
SEVIERVILLE*   MOCLDY    61  57  88 W7        29.85S
KNOXVILLE      CLOUDY    63  57  81 SW9       29.84F
LAFOLLETTE*    CLOUDY    66  52  59 SW5       29.87F
OAK RIDGE      PTSUNNY   68  58  70 S8        29.84F
CROSSVILLE     CLOUDY    59  53  80 W12G21    29.88S
NASHVILLE      CLOUDY    64  55  72 VRB7      29.91F
$$

...KEY TO REMARKS...
VSB - VISIBILITY IN MILES
WCI - WIND CHILL INDEX
HX  - HEAT INDEX

$$




USA.gov is the U.S. government's official web portal to all federal, state and local government web resources and services.